Regional Weather Roundup
Issued by NWS

Home | Current Version | Previous Version | Graphics & Text | Print | Product List | Glossary On
Versions: 1 2 3 4 5 6 7 8 9 10 11 12 13 14 15 16 17 18 19 20 21 22 23 24 25 26 27 28 29 30 31 32 33 34 35 36 37 38 39 40 41 42 43 44 45 46 47 48 49 50
000
ASUS45 KTFX 310019
RWRMT
MONTANA HOURLY WEATHER ROUNDUP
NATIONAL WEATHER SERVICE GREAT FALLS MT
619 PM MDT WED JUL 30 2014

NOTE: "FAIR" INDICATES FEW OR NO CLOUDS BELOW 12000 FEET WITH NO
SIGNIFICANT WEATHER AND/OR OBSTRUCTIONS TO VISIBILITY.

* THESE STATIONS ARE NOT UNDER NWS QUALITY CONTROL. THEY DO NOT
   REPORT WEATHER SUCH AS PRECIPITATION OR FOG.

MTZ001>007-043-310100-
WEST OF THE DIVIDE
CITY           SKY/WX    TMP DP  RH WIND       PRES   REMARKS
KALISPELL      CLOUDY    82  55  40 CALM      30.05S HI  81
MISSOULA       MOCLDY    93  36  13 VRB3      30.07S
BUTTE          CLOUDY    81  39  22 N9        30.27S
MULLAN PASS    PTCLDY    79  43  28 VRB3      30.29F
* LINCOLN      N/A       87  41  20 N5G19      N/A
* LOOKOUT PASS N/A       83  42  23 NE3G12     N/A
* POLSON       N/A       89  44  21 N2         N/A
* RONAN APT    MOCLDY    88  54  31 SW6        N/A
* SEELEY LAKE  N/A       91  39  16 NW7G17     N/A
* THOMP F APT  PTCLDY    75  40  28 S9G21      N/A
* YAAK HILL    N/A       98  44  16 S1G8       N/A
$$

MTZ008-052>055-310100-
SOUTHWEST MONTANA
CITY           SKY/WX    TMP DP  RH WIND       PRES   REMARKS
BOZEMAN        CLOUDY    84  32  15 W10       30.15S
DILLON         CLOUDY    73  43  34 E18G28    30.24S
W YELLOWSTONE  PTCLDY    75  27  17 CALM      30.32S
* THREE FORKS  CLOUDY    82  52  35 W6         N/A
* BOULDER HILL N/A       72  41  33 S11G18     N/A
* MONIDA PASS  N/A       72  39  30 S15G20     N/A
* RAYNOLDS PAS N/A       80  59  49 SE3G13     N/A   HI  81
* WHITEHALL    N/A       79  48  34 W4         N/A
* WISE RIVER   N/A       78  40  26 S8G20      N/A
$$

MTZ009>010-012-014-046-048-049-054-310100-
EAST SLOPES AND CENTRAL MONTANA
CITY           SKY/WX    TMP DP  RH WIND       PRES   REMARKS
CUT BANK       CLOUDY    88  39  18 SW8       30.11F
GREAT FALLS    MOCLDY    90  37  15 W3        30.08S
HELENA         MOCLDY    90  39  17 S8        30.10F
MALMSTROM AFB  MOCLDY    90  37  15 W7        30.08S
* CONRAD       CLOUDY    86  45  24 W9         N/A
* DEARBORN     N/A       91  44  20 W1G8       N/A
* EAST GLACIER N/A       80  45  29 W2         N/A
* MONARCH      N/A       83  39  21 SW8        N/A
* PENDROY      N/A       79  56  45 S4         N/A
* ROGERS PASS  N/A       80  39  23 SE3        N/A
* SAINT MARY   N/A       75  47  37 SE4G15     N/A
* SWEET GRASS  N/A       77  49  37 E24G34     N/A
* WHITE SULPH  N/A       80  25  13 W6G11      N/A
$$

MTZ011-013-016-021-035-040-045-047-050-051-310100-
NORTH CENTRAL MONTANA
CITY           SKY/WX    TMP DP  RH WIND       PRES   REMARKS
HAVRE          PTCLDY    95  30  10 S10       30.01F
LEWISTOWN      PTCLDY    90  36  15 S9        30.15S
* FORT BENTON  CLOUDY    93  36  13 E3        30.02F
* CHESTER      N/A       91  31  12 E6G12      N/A
* DENTON       N/A       90  41  18 S14G20     N/A
* GEYSER       N/A       87  46  24 S18G24     N/A
* JUDITH GAP   N/A       83  41  23 SE14G23    N/A
* LOMA         N/A       94  35  12 E4G11      N/A
$$

MTZ017>020-022>027-061-062-310100-
NORTHEAST MONTANA
CITY           SKY/WX    TMP DP  RH WIND       PRES   REMARKS
GLASGOW        CLEAR     91  43  19 S10       30.06F
GLENDIVE       CLEAR     84  50  31 E7        30.13S
JORDAN         CLEAR     91  39  16 VRB5      30.08F
SIDNEY         CLEAR     84  52  33 E5        30.12F
WOLF POINT     CLEAR     91  48  23 VRB5      30.08F
* BEAVER HILL  N/A       83  46  27 VRB9G14    N/A
* CIRCLE       N/A       90  50  25 E1         N/A
* LINDSAY DVD  N/A       86  48  27 N6         N/A
$$

MTZ028>042-056>058-310100-
SOUTHCENTRAL AND SOUTHEAST MONTANA
CITY           SKY/WX    TMP DP  RH WIND       PRES   REMARKS
BAKER          CLEAR     84  48  29 NE9       30.16F
BILLINGS       PTCLDY    88  37  16 SE9       30.14F
LIVINGSTON     PTCLDY    88  34  15 NE14      30.15F
MILES CITY     CLEAR     90  41  18 E6        30.12F
* LAUREL APT   PTCLDY    88  41  19 NE8        N/A
* ROUNDUP APT  CLEAR     90  37  15 SE6        N/A
* ALZADA       N/A       83  40  22 N6G11      N/A
* HYSHAM       N/A       88  43  21 E7G12      N/A
* LAME DEER    N/A       81  38  21 N3G15      N/A
* REED POINT   N/A       89  43  20 E14        N/A
* ROSCOE HILL  N/A       82  33  17 NE17G22    N/A
$$

REGIONAL REPORTS...DAKOTAS
CITY           SKY/WX    TMP DP  RH WIND       PRES   REMARKS
WILLISTON      CLEAR     82  45  27 NE9       30.12S
DICKINSON      CLEAR     82  48  31 N8        30.12F
CROSBY         CLEAR     77  55  47 CALM      30.13F
TIOGA          CLEAR     75  54  48 N6        30.17S
WATFORD CITY   CLEAR     81  46  29 N7        30.11S
BISMARCK       PTCLDY    81  55  41 E6        30.10S HI  81
GRAND FORKS    FAIR      79  55  44 N7        30.04S
FARGO          CLEAR     81  54  39 NW10      30.04F
BUFFALO SD     CLEAR     81  50  34 E7        30.10F
RAPID CITY     MOCLDY    82  46  28 N12       30.14F
$$

REGIONAL REPORTS...WYOMING/IDAHO/WASHINGTON
CITY           SKY/WX    TMP DP  RH WIND       PRES   REMARKS
GILLETTE       MOCLDY    81  36  20 NE7       30.22S
SHERIDAN       MOCLDY    82  39  22 NE5       30.19F
YELLOWSTONE LA CLOUDY    68  34  28 CALM      30.43F
SALMON         CLOUDY    81  50  34 SW7       30.11R
MULLAN PASS    PTCLDY    79  43  28 VRB3      30.29S
SAND POINT     PTCLDY    91  52  26 E3        29.98F
SPOKANE        FAIR      99  34  10 W14       30.01F
$$

REGIONAL REPORTS...ALBERTA
CITY           SKY/WX    TMP DP  RH WIND       PRES   REMARKS
CALGARY        MOCLDY    84  52  33 VRB6      30.09S
LETHBRIDGE     MOCLDY    81  55  41 W8        30.05S HI  81
MEDICINE HAT   MOCLDY    93  37  14 W3        29.99F
EDMONTON       PTCLDY    81  64  56 E7        30.01F HI  83
WATERTON GATE  N/A       77  43  30 E8         N/A
CARDSTON       N/A       81  41  24 S6         N/A
$$

REGIONAL REPORTS...SASKATCHEWAN
CITY           SKY/WX    TMP DP  RH WIND       PRES   REMARKS
SWIFT CURRENT  PTCLDY    86  52  31 W7        30.03S
MOOSE JAW      PTCLDY    81  61  51 SE12G17   30.07F HI  82
REGINA         MOCLDY    77  59  54 SE14      30.09F
VAL MARIE      N/A       90  43  19 NE5        N/A
ASSINIBOIA     N/A       82  59  46 SE8        N/A   HI  82
CORONACH       N/A       84  54  36 SE10       N/A

$$




USA.gov is the U.S. government's official web portal to all federal, state and local government web resources and services.